Location: Wanzleben
(52.0609°N, 11.4408°E)
Time: 17:28:32
(UTC+00:00)

Envisat - Pass Details

Date: 30 November 2020
Orbit: 764 x 766 km, 98.1° (Epoch: 20 January)

Event Time Altitude Azimuth Distance (km) Brightness Sun altitude
Rises 05:52:48 0° 11° (NNE) 3,248 6.1 -9.7°
Reaches altitude 10° 05:55:09 10° 8° (N) 2,317 5.3 -9.4°
Maximum altitude 06:00:07 56° 291° (WNW) 913 3.1 -8.7°
Drops below altitude 10° 06:05:04 10° 214° (SW) 2,300 5.4 -8.0°
Sets 06:07:24 0° 211° (SSW) 3,222 6.2 -7.7°
